2022/12/28 00:00:00,50.3,-2.5
2022/12/28 00:10:00,50.3,-2.6
2022/12/28 00:20:00,50.2,-2.6
2022/12/28 00:30:00,50.1,-2.6
2022/12/28 00:40:00,50.1,-2.4
2022/12/28 00:50:00,50.1,-2.7
2022/12/28 01:00:00,50.0,-2.4
2022/12/28 01:10:00,50.0,-2.4
2022/12/28 01:20:00,50.0,-2.4
2022/12/28 01:30:00,49.9,-2.4
2022/12/28 01:40:00,49.9,-2.4
2022/12/28 01:50:00,49.9,-2.3
2022/12/28 02:00:00,49.9,-2.6
2022/12/28 02:10:00,49.8,-2.4
2022/12/28 02:20:00,49.8,-2.4
2022/12/28 02:30:00,49.8,-2.2
2022/12/28 02:40:00,49.8,-2.2
2022/12/28 02:50:00,49.7,-2.4
2022/12/28 03:00:00,49.7,-2.2
2022/12/28 03:10:00,49.7,-2.2
2022/12/28 03:20:00,49.7,-2.0
2022/12/28 03:30:00,49.6,-1.8
2022/12/28 03:40:00,49.6,-2.1
2022/12/28 03:50:00,49.6,-2.1
2022/12/28 04:00:00,49.6,-2.0
2022/12/28 04:10:00,49.6,-1.8
2022/12/28 04:20:00,49.6,-1.7
2022/12/28 04:30:00,49.6,-1.2
2022/12/28 04:40:00,49.6,-1.4
2022/12/28 04:50:00,49.6,-1.2
2022/12/28 05:00:00,49.5,-1.1
2022/12/28 05:10:00,49.5,-1.3
2022/12/28 05:20:00,49.5,-1.2
2022/12/28 05:30:00,49.5,-1.1
2022/12/28 05:40:00,49.5,-1.3
2022/12/28 05:50:00,49.5,-1.3
2022/12/28 06:00:00,49.5,-1.1
2022/12/28 06:10:00,49.5,-1.1
2022/12/28 06:20:00,49.4,-1.4
2022/12/28 06:30:00,49.4,-1.5
2022/12/28 06:40:00,49.4,-1.6
2022/12/28 06:50:00,49.5,-1.3
2022/12/28 07:00:00,49.4,-1.2
2022/12/28 07:10:00,49.4,-1.0
2022/12/28 07:20:00,49.4,-0.8
2022/12/28 07:30:00,49.2,-0.6
2022/12/28 07:40:00,49.2,-0.4
2022/12/28 07:50:00,49.2, 0.0
2022/12/28 08:00:00,49.2, 0.1
2022/12/28 08:10:00,49.2, 0.2
2022/12/28 08:20:00,49.3, 0.4
2022/12/28 08:30:00,49.2, 0.5
2022/12/28 08:40:00,49.2, 0.5
2022/12/28 08:50:00,49.2, 0.7
2022/12/28 09:00:00,49.3, 0.6
2022/12/28 09:10:00,49.2, 0.9
2022/12/28 09:20:00,49.2, 0.9
2022/12/28 09:30:00,49.3, 0.9
2022/12/28 09:40:00,49.3, 1.0
2022/12/28 09:50:00,49.3, 1.7
2022/12/28 10:00:00,49.2, 1.4
2022/12/28 10:10:00,49.3, 2.2
2022/12/28 10:20:00,49.2, 2.4
2022/12/28 10:30:00,49.2, 2.3
2022/12/28 10:40:00,49.2, 2.4
2022/12/28 10:50:00,49.2, 3.4
2022/12/28 11:00:00,49.1, 4.0
2022/12/28 11:10:00,49.1, 5.0
2022/12/28 11:20:00,49.1, 9.4
2022/12/28 11:30:00,49.1, 6.6
2022/12/28 11:40:00,49.1, 7.7
2022/12/28 11:50:00,49.0, 8.4
2022/12/28 12:00:00,48.9, 6.0
2022/12/28 12:10:00,48.8, 6.3
2022/12/28 12:20:00,48.8, 5.0
2022/12/28 12:30:00,48.7,10.2
2022/12/28 12:40:00,48.8, 9.8
2022/12/28 12:50:00,48.7, 9.6
2022/12/28 13:00:00,48.7, 7.5
2022/12/28 13:10:00,48.7, 6.4
2022/12/28 13:20:00,48.8, 6.1
2022/12/28 13:30:00,48.7, 5.4
2022/12/28 13:40:00,48.7, 9.1
2022/12/28 13:50:00,48.7,12.6
2022/12/28 14:00:00,48.5, 8.3
2022/12/28 14:10:00,48.5, 7.3
2022/12/28 14:20:00,48.2, 5.3
2022/12/28 14:30:00,48.1, 4.7
2022/12/28 14:40:00,48.0, 4.2
2022/12/28 14:50:00,47.9, 3.8
2022/12/28 15:00:00,47.8, 3.7
2022/12/28 15:10:00,47.7, 3.1
2022/12/28 15:20:00,47.6, 3.3
2022/12/28 15:30:00,47.5, 3.6
2022/12/28 15:40:00,47.4, 3.6
2022/12/28 15:50:00,47.4, 2.7
2022/12/28 16:00:00,47.3, 2.8
2022/12/28 16:10:00,47.2, 2.3
2022/12/28 16:20:00,47.1, 1.7
2022/12/28 16:30:00,47.1, 1.4
2022/12/28 16:40:00,47.1, 1.3
2022/12/28 16:50:00,46.9, 1.1
2022/12/28 17:00:00,47.0, 1.1
2022/12/28 17:10:00,46.9, 0.9
2022/12/28 17:20:00,46.9, 1.0
2022/12/28 17:30:00,46.9, 1.1
2022/12/28 17:40:00,46.9, 1.0
2022/12/28 17:50:00,46.8, 1.0
2022/12/28 18:00:00,46.9, 0.7
2022/12/28 18:10:00,47.1, 0.7
2022/12/28 18:20:00,46.8, 0.7
2022/12/28 18:30:00,46.7, 0.7
2022/12/28 18:40:00,46.8, 0.3
2022/12/28 18:50:00,46.9, 0.1
2022/12/28 19:00:00,46.8, 0.0
2022/12/28 19:10:00,46.7,-0.2
2022/12/28 19:20:00,46.7, 0.2
2022/12/28 19:30:00,46.5, 0.4
2022/12/28 19:40:00,46.4, 0.3
2022/12/28 19:50:00,46.4, 0.2
2022/12/28 20:00:00,46.4, 0.2
2022/12/28 20:10:00,46.3, 0.1
2022/12/28 20:20:00,46.3, 0.2
2022/12/28 20:30:00,46.2, 0.1
2022/12/28 20:40:00,46.2,-0.1
2022/12/28 20:50:00,46.2,-0.3
2022/12/28 21:00:00,46.1,-0.4
2022/12/28 21:10:00,46.1,-0.6
2022/12/28 21:20:00,46.1,-0.4
2022/12/28 21:30:00,46.1,-0.5
2022/12/28 21:40:00,45.9,-0.5
2022/12/28 21:50:00,46.0,-0.7
2022/12/28 22:00:00,46.0,-1.0
2022/12/28 22:10:00,45.9,-1.2
2022/12/28 22:20:00,45.9,-1.0
2022/12/28 22:30:00,45.9,-1.1
2022/12/28 22:40:00,45.8,-1.0
2022/12/28 22:50:00,45.7,-1.2
2022/12/28 23:00:00,45.7,-1.4
2022/12/28 23:10:00,45.7,-1.2
2022/12/28 23:20:00,45.7,-1.1
2022/12/28 23:30:00,45.7,-1.2
2022/12/28 23:40:00,45.6,-1.3
2022/12/28 23:50:00,45.6,-1.6
